TimeCDT,TemperatureF,Dew PointF,Humidity,Sea Level PressureIn,VisibilityMPH,Wind Direction,Wind SpeedMPH,Gust SpeedMPH,PrecipitationIn,Events,Conditions,WindDirDegrees,DateUTC
12:53 AM,60.1,48.0,64,29.97,10.0,SSW,5.8,-,N/A,,Clear,200,2012-10-21 05:53:00
1:53 AM,55.0,48.0,77,29.97,10.0,South,6.9,-,N/A,,Clear,190,2012-10-21 06:53:00
2:53 AM,57.0,48.9,74,29.98,10.0,South,4.6,-,N/A,,Clear,170,2012-10-21 07:53:00
3:53 AM,55.0,48.9,80,29.99,10.0,SE,4.6,-,N/A,,Partly Cloudy,140,2012-10-21 08:53:00
4:53 AM,54.0,48.9,83,30.00,10.0,SSE,3.5,-,N/A,,Clear,160,2012-10-21 09:53:00
5:53 AM,55.0,50.0,83,30.02,10.0,SSE,4.6,-,N/A,,Scattered Clouds,160,2012-10-21 10:53:00
6:53 AM,55.9,51.1,84,30.03,10.0,SSE,4.6,-,N/A,,Scattered Clouds,150,2012-10-21 11:53:00
7:53 AM,57.9,52.0,81,30.05,10.0,South,4.6,-,N/A,,Mostly Cloudy,170,2012-10-21 12:53:00
8:53 AM,62.1,54.0,75,30.07,10.0,South,6.9,-,N/A,,Mostly Cloudy,170,2012-10-21 13:53:00
9:53 AM,66.9,55.9,68,30.08,10.0,South,10.4,-,N/A,,Scattered Clouds,190,2012-10-21 14:53:00
10:53 AM,71.1,55.9,59,30.08,10.0,South,11.5,-,N/A,,Clear,180,2012-10-21 15:53:00
11:53 AM,75.9,55.9,50,30.07,10.0,South,10.4,-,N/A,,Partly Cloudy,190,2012-10-21 16:53:00
12:53 PM,79.0,48.9,35,30.05,10.0,South,13.8,-,N/A,,Mostly Cloudy,190,2012-10-21 17:53:00
1:53 PM,80.6,50.0,34,30.01,10.0,South,12.7,-,N/A,,Scattered Clouds,190,2012-10-21 18:53:00
2:53 PM,82.0,50.0,33,30.01,10.0,South,13.8,-,N/A,,Clear,180,2012-10-21 19:53:00
3:53 PM,82.0,50.0,33,30.01,10.0,South,13.8,-,N/A,,Clear,190,2012-10-21 20:53:00
4:53 PM,81.0,48.9,33,30.01,10.0,South,13.8,-,N/A,,Clear,180,2012-10-21 21:53:00
5:53 PM,79.0,50.0,36,30.02,10.0,SSE,6.9,-,N/A,,Clear,150,2012-10-21 22:53:00
6:53 PM,73.9,52.0,46,30.02,10.0,SSE,9.2,-,N/A,,Clear,150,2012-10-21 23:53:00
7:53 PM,70.0,51.1,51,30.04,10.0,SSE,6.9,-,N/A,,Clear,160,2012-10-22 00:53:00
8:53 PM,64.9,52.0,63,30.04,10.0,South,8.1,-,N/A,,Clear,170,2012-10-22 01:53:00
9:53 PM,62.1,53.1,72,30.05,10.0,SE,5.8,-,N/A,,Clear,130,2012-10-22 02:53:00
10:53 PM,63.0,53.1,70,30.06,10.0,SSE,6.9,-,N/A,,Clear,160,2012-10-22 03:53:00
11:53 PM,64.9,53.1,65,30.06,10.0,SSE,8.1,-,N/A,,Clear,160,2012-10-22 04:53:00